Manistee, MI

7:49 PM EDT on March 25, 2017 (GMT -0400)
Manistee County-Blacker

Weather History for KMBL - January, 2013

Change the Weather History Date:

Friday, January 18, 2013

  Actual Average Record
Temperature  
Mean Temperature 22 °F -  
Max Temperature 41 °F 29 °F 50 °F (1973)
Min Temperature 6 °F 18 °F 1 °F (1967)
Degree Days  
Heating Degree Days 42    
Moisture  
Dew Point 15 °F    
Average Humidity 70    
Maximum Humidity 86    
Minimum Humidity 53    
Precipitation  
Precipitation 0.00 in - - ()
Sea Level Pressure  
Sea Level Pressure 30.10 in    
Wind  
Wind Speed 9 mph (SSW)    
Max Wind Speed 20 mph    
Max Gust Speed 36 mph    
Visibility 9 miles    
Events      
Averages and records for this station are not official NWS values.
T = Trace of Precipitation, MM = Missing Value Source: NWS Daily Summary

Daily Weather History Graph

Daily Weather History Graph

Search for Another Location

Airport or City:

Trip Planner

Search our weather history database for the weather conditions in past years. The results will help you decide how hot, cold, wet, or windy it might be!

Date:

Astronomy

Jan. 18, 2013 Rise Set
Actual Time 8:15 AM EST 5:36 PM EST
Civil Twilight 7:43 AM EST 6:08 PM EST
Nautical Twilight 7:07 AM EST 6:43 PM EST
Astronomical Twilight 6:33 AM EST 7:18 PM EST
Moon 11:34 AM EST (1/18) 12:43 AM EST (1/18)
Length of Visible Light 10h 24m
Length of Day
9h 20m
Waxing Crescent, 47% of the Moon is Illuminated
Jan 18
Waxing Crescent
Jan 18
First Quarter
Jan 26
Full
Feb 3
Last Quarter
Feb 10
New

Hourly Weather History & Observations

Time (EST) Temp. Windchill Dew Point Humidity Pressure Visibility Wind Dir Wind Speed Gust Speed Precip Events Conditions
12:15 AM 15.8 °F 3.4 °F 1.4 °F 53% 30.33 in 10.0 mi NW 10.4 mph - N/A   Overcast
12:35 AM 15.8 °F 3.4 °F 1.4 °F 53% 30.34 in 10.0 mi NW 10.4 mph - N/A   Overcast
12:55 AM 15.8 °F 5.1 °F 1.4 °F 53% 30.34 in 10.0 mi NW 8.1 mph - N/A   Overcast
1:15 AM 15.8 °F 2.1 °F 1.4 °F 53% 30.34 in 10.0 mi NW 12.7 mph 16.1 mph N/A   Overcast
1:35 AM 15.8 °F 6.1 °F 1.4 °F 53% 30.35 in 10.0 mi NW 6.9 mph - N/A   Overcast
1:55 AM 15.8 °F 3.4 °F 3.2 °F 58% 30.36 in 10.0 mi NW 10.4 mph - N/A   Overcast
2:15 AM 15.8 °F 2.7 °F 3.2 °F 58% 30.37 in 10.0 mi NW 11.5 mph - N/A   Overcast
2:35 AM 15.8 °F 8.6 °F 3.2 °F 58% 30.36 in 10.0 mi West 4.6 mph - N/A   Overcast
2:55 AM 15.8 °F 5.1 °F 1.4 °F 53% 30.37 in 10.0 mi WNW 8.1 mph - N/A   Mostly Cloudy
3:15 AM 14.0 °F 6.5 °F 3.2 °F 62% 30.37 in 10.0 mi West 4.6 mph - N/A   Overcast
3:35 AM 14.0 °F 3.9 °F 1.4 °F 57% 30.37 in 10.0 mi WNW 6.9 mph - N/A   Overcast
3:55 AM 14.0 °F 5.1 °F 3.2 °F 62% 30.37 in 10.0 mi WNW 5.8 mph - N/A   Mostly Cloudy
4:15 AM 14.0 °F 8.2 °F 1.4 °F 57% 30.36 in 10.0 mi NW 3.5 mph - N/A   Mostly Cloudy
4:35 AM 12.2 °F - 1.4 °F 62% 30.36 in 10.0 mi Calm Calm - N/A   Mostly Cloudy
4:55 AM 12.2 °F - 1.4 °F 62% 30.36 in 10.0 mi Calm Calm - N/A   Scattered Clouds
5:15 AM 8.6 °F - 1.4 °F 73% 30.36 in 10.0 mi Calm Calm - N/A   Partly Cloudy
5:35 AM 6.8 °F - -2.2 °F 67% 30.35 in 10.0 mi Calm Calm - N/A   Scattered Clouds
5:55 AM 8.6 °F - 1.4 °F 73% 30.35 in 10.0 mi Calm Calm - N/A   Scattered Clouds
6:15 AM 6.8 °F -0.1 °F 1.4 °F 79% 30.34 in 10.0 mi East 3.5 mph - N/A   Scattered Clouds
6:35 AM 6.8 °F -0.1 °F 1.4 °F 79% 30.33 in 10.0 mi East 3.5 mph - N/A   Scattered Clouds
6:55 AM 6.8 °F -2.0 °F 1.4 °F 79% 30.32 in 10.0 mi East 4.6 mph - N/A   Scattered Clouds
7:15 AM 8.6 °F 0.1 °F 3.2 °F 79% 30.32 in 10.0 mi East 4.6 mph - N/A   Mostly Cloudy
7:35 AM 8.6 °F 2.0 °F 3.2 °F 79% 30.32 in 10.0 mi East 3.5 mph - N/A   Overcast
7:55 AM 10.4 °F - 3.2 °F 73% 30.31 in 10.0 mi Calm Calm - N/A   Mostly Cloudy
8:15 AM 10.4 °F - 5.0 °F 79% 30.31 in 10.0 mi Calm Calm - N/A   Mostly Cloudy
8:35 AM 12.2 °F 2.9 °F 3.2 °F 67% 30.30 in 10.0 mi SSE 5.8 mph - N/A   Overcast
8:55 AM 12.2 °F 2.9 °F 3.2 °F 67% 30.30 in 10.0 mi SSE 5.8 mph - N/A   Overcast
9:15 AM 14.0 °F 3.9 °F 3.2 °F 62% 30.29 in 10.0 mi SE 6.9 mph - N/A   Overcast
9:35 AM 14.0 °F 5.1 °F 5.0 °F 67% 30.29 in 3.0 mi SE 5.8 mph - N/A   Overcast
9:55 AM 14.0 °F 5.1 °F 6.8 °F 73% 30.28 in 1.5 mi SE 5.8 mph - N/A   Overcast
10:15 AM 14.0 °F 3.9 °F 8.6 °F 79% 30.27 in 1.0 mi SSE 6.9 mph - N/A   Overcast
10:35 AM 15.8 °F 5.1 °F 8.6 °F 73% 30.26 in 1.2 mi SE 8.1 mph - N/A   Overcast
10:55 AM 15.8 °F 5.1 °F 12.2 °F 86% 30.24 in 1.0 mi SE 8.1 mph - N/A   Overcast
11:15 AM 17.6 °F 5.0 °F 12.2 °F 79% 30.20 in 1.5 mi SSE 11.5 mph - N/A   Overcast
11:35 AM 19.4 °F 9.5 °F 14.0 °F 80% 30.18 in 1.2 mi SSE 8.1 mph - N/A   Overcast
11:55 AM 19.4 °F 7.9 °F 15.8 °F 86% 30.14 in 1.0 mi SSE 10.4 mph - N/A   Overcast
12:15 PM 21.2 °F 11.7 °F 15.8 °F 80% 30.11 in 1.8 mi SSE 8.1 mph - N/A   Overcast
12:35 PM 21.2 °F 10.9 °F 17.6 °F 86% 30.07 in 3.0 mi SSE 9.2 mph - N/A   Overcast
12:55 PM 23.0 °F 12.4 °F 17.6 °F 80% 30.03 in 10.0 mi SSE 10.4 mph 19.6 mph N/A   Overcast
1:15 PM 24.8 °F 14.6 °F 19.4 °F 80% 30.01 in 10.0 mi SSE 10.4 mph 18.4 mph N/A   Overcast
1:35 PM 26.6 °F 16.8 °F 21.2 °F 80% 29.99 in 10.0 mi SSE 10.4 mph 20.7 mph N/A   Overcast
1:55 PM 28.4 °F 18.0 °F 23.0 °F 80% 29.96 in 10.0 mi South 12.7 mph 19.6 mph N/A   Overcast
2:15 PM 30.2 °F 21.3 °F 24.8 °F 80% 29.95 in 10.0 mi South 10.4 mph 20.7 mph N/A   Overcast
2:35 PM 32.0 °F 23.0 °F 24.8 °F 75% 29.93 in 10.0 mi South 11.5 mph 19.6 mph N/A   Overcast
2:55 PM 33.8 °F 23.2 °F 24.8 °F 70% 29.92 in 10.0 mi SSW 17.3 mph 32.2 mph N/A   Overcast
3:15 PM 35.6 °F 24.8 °F 26.6 °F 70% 29.89 in 10.0 mi South 19.6 mph 35.7 mph N/A   Overcast
3:35 PM 35.6 °F 25.5 °F 26.6 °F 70% 29.89 in 10.0 mi SSW 17.3 mph 31.1 mph N/A   Overcast
3:55 PM 35.6 °F 24.8 °F 26.6 °F 70% 29.89 in 10.0 mi SSW 19.6 mph 33.4 mph N/A   Overcast
4:15 PM 37.4 °F 28.9 °F 26.6 °F 65% 29.89 in 10.0 mi SSW 13.8 mph 24.2 mph N/A   Overcast
4:35 PM 37.4 °F 27.5 °F 28.4 °F 70% 29.88 in 10.0 mi SSW 18.4 mph 33.4 mph N/A   Overcast
4:55 PM 37.4 °F 28.2 °F 28.4 °F 70% 29.88 in 10.0 mi SSW 16.1 mph 25.3 mph N/A   Overcast
5:15 PM 37.4 °F 28.5 °F 28.4 °F 70% 29.88 in 10.0 mi SSW 15.0 mph 27.6 mph N/A   Overcast
5:35 PM 37.4 °F 29.3 °F 28.4 °F 70% 29.87 in 10.0 mi SW 12.7 mph 23.0 mph N/A   Overcast
5:55 PM 37.4 °F 29.8 °F 28.4 °F 70% 29.87 in 10.0 mi SSW 11.5 mph 20.7 mph N/A   Mostly Cloudy
6:15 PM 37.4 °F 28.9 °F 28.4 °F 70% 29.87 in 10.0 mi SSW 13.8 mph 20.7 mph N/A   Mostly Cloudy
6:35 PM 39.2 °F 31.2 °F 30.2 °F 70% 29.86 in 10.0 mi SSW 13.8 mph 21.9 mph N/A   Mostly Cloudy
6:55 PM 39.2 °F 31.2 °F 30.2 °F 70% 29.86 in 10.0 mi SSW 13.8 mph 24.2 mph N/A   Overcast
7:15 PM 39.2 °F 30.8 °F 30.2 °F 70% 29.85 in 10.0 mi SSW 15.0 mph 23.0 mph N/A   Overcast
7:35 PM 39.2 °F 32.5 °F 30.2 °F 70% 29.85 in 10.0 mi SSW 10.4 mph 19.6 mph N/A   Mostly Cloudy
7:55 PM 39.2 °F 31.6 °F 30.2 °F 70% 29.84 in 10.0 mi SSW 12.7 mph 20.7 mph N/A   Mostly Cloudy
8:15 PM 39.2 °F 31.2 °F 30.2 °F 70% 29.84 in 10.0 mi SSW 13.8 mph 21.9 mph N/A   Mostly Cloudy
8:35 PM 39.2 °F 31.6 °F 30.2 °F 70% 29.83 in 10.0 mi SSW 12.7 mph 21.9 mph N/A   Partly Cloudy
8:55 PM 39.2 °F 31.6 °F 30.2 °F 70% 29.83 in 10.0 mi SSW 12.7 mph 20.7 mph N/A   Clear
9:15 PM 39.2 °F 31.6 °F 30.2 °F 70% 29.82 in 10.0 mi SSW 12.7 mph 16.1 mph N/A   Clear
9:35 PM 39.2 °F 32.0 °F 30.2 °F 70% 29.81 in 10.0 mi SSW 11.5 mph 17.3 mph N/A   Clear
9:55 PM 39.2 °F 30.8 °F 30.2 °F 70% 29.80 in 10.0 mi SSW 15.0 mph 19.6 mph N/A   Clear
10:35 PM 39.2 °F 31.6 °F 30.2 °F 70% 29.79 in 10.0 mi SSW 12.7 mph 18.4 mph N/A   Clear
10:55 PM 39.2 °F 31.2 °F 30.2 °F 70% 29.77 in 10.0 mi SSW 13.8 mph 20.7 mph N/A   Clear
11:15 PM 39.2 °F 31.6 °F 32.0 °F 75% 29.77 in 10.0 mi SW 12.7 mph 24.2 mph N/A   Clear
11:35 PM 39.2 °F 31.2 °F 30.2 °F 70% 29.77 in 10.0 mi SW 13.8 mph 20.7 mph N/A   Clear
11:55 PM 39.2 °F 30.5 °F 30.2 °F 70% 29.77 in 10.0 mi SW 16.1 mph 21.9 mph N/A   Clear